Wind_Speed
7 7 5 4 4 3 3 3 4 4 5 5 5 5 6 6 5 6 6 7 7 7 7 6 6 6 7 7 7 7 7 7 7 8 8 7 7 7 7 8 8 8 8
7 7 6 4 4 3 3 4 4 4 5 5 5 6 7 7 6 6 7 7 7 8 7 7 7 8 7 7 7 7 8 7 8 8 8 8 8 8 8 8 8 8 8
7 7 7 4 4 4 4 4 4 5 5 4 4 5 7 7 7 8 8 8 8 8 7 7 8 8 7 7 7 8 9 8 8 8 8 8 9 9 9 8 8 8 9
7 7 7 5 5 4 5 5 5 5 5 6 5 6 7 7 7 8 8 8 8 8 8 8 8 8 8 8 8 9 9 9 9 9 8 9 9 8 9 8 8 8 9
8 8 8 7 6 6 5 5 6 6 6 6 7 7 6 7 7 8 8 8 8 9 8 9 9 9 9 9 9 9 9 10 10 10 10 10 10 9 9 9 8 8 9
8 8 8 7 7 6 6 5 6 6 7 7 7 7 7 7 7 7 7 8 8 8 9 9 10 10 10 10 10 10 10 11 11 10 11 11 10 10 10 10 10 10 10
9 8 8 7 7 7 6 6 6 6 7 8 8 8 7 7 7 7 7 7 8 8 9 9 10 10 10 10 10 11 11 11 11 11 11 11 11 10 10 11 11 10 10
10 9 9 8 8 7 8 8 8 7 7 8 8 8 8 8 8 9 8 8 8 9 9 10 10 10 11 11 11 11 11 11 11 11 11 12 12 12 12 12 12 12 11
11 10 10 10 9 9 9 9 9 9 9 9 9 9 9 9 9 9 9 10 10 9 10 10 11 11 11 12 12 12 12 11 12 12 11 11 12 12 12 12 12 12 12
12 12 12 11 11 10 10 10 10 10 10 10 10 10 10 10 10 10 10 10 11 11 10 11 12 12 12 13 14 13 13 13 13 12 12 12 12 13 13 13 14 14 13
13 13 13 13 12 11 11 11 11 11 11 11 11 11 10 11 11 11 11 11 12 12 12 12 12 12 13 13 14 14 14 14 13 13 13 13 13 13 14 14 14 15 14
14 13 13 14 14 13 13 13 12 12 12 13 13 12 12 12 11 11 12 12 13 13 13 13 13 13 13 13 14 14 15 14 14 14 14 15 15 15 15 15 15 15 15
15 15 14 15 15 15 15 14 13 13 13 14 14 13 13 13 13 13 13 14 14 14 14 14 14 14 15 14 14 14 15 15 15 15 15 15 16 16 16 15 15 15 15
16 16 15 16 16 15 15 15 14 14 14 14 14 15 15 14 14 15 15 15 15 15 15 15 15 15 15 15 15 15 16 16 16 17 17 16 16 17 17 16 17 16 16
17 17 17 17 17 17 16 15 15 15 15 15 15 16 16 16 15 15 16 16 16 16 16 16 17 17 17 16 16 16 16 16 17 17 18 17 17 18 18 18 18 18 17
19 19 19 18 18 18 17 17 16 16 17 17 16 16 16 16 16 16 16 16 17 17 17 17 18 19 18 18 17 17 18 17 18 18 18 18 18 18 18 19 20 19 18
21 21 20 20 19 18 18 18 18 18 18 18 17 17 17 17 18 18 18 18 18 18 18 19 19 19 19 19 19 19 19 19 18 19 19 19 19 19 19 20 20 20 20
21 21 22 22 21 20 20 19 19 19 19 19 19 19 18 18 19 19 19 19 19 19 19 19 20 21 21 21 20 20 20 20 20 20 20 20 20 20 20 20 20 21 21
23 22 22 23 22 22 22 21 21 21 21 20 20 20 20 20 20 21 21 20 20 20 20 20 21 21 22 22 22 22 22 21 21 21 21 21 21 21 20 21 21 21 21
23 23 23 23 24 24 23 22 22 22 22 22 21 22 22 22 22 22 22 22 21 21 21 20 20 21 21 22 22 22 22 22 22 22 22 22 22 21 21 21 22 21 21
23 23 23 23 23 23 22 22 22 22 22 22 22 22 22 22 23 23 23 23 22 22 22 22 21 21 22 22 22 22 23 22 22 23 23 23 23 22 22 22 22 23 23
22 23 23 23 23 22 22 22 22 22 22 22 22 22 22 23 23 23 23 23 23 23 24 23 23 23 23 23 23 23 23 23 23 23 24 24 24 23 23 22 23 23 23
23 22 22 22 22 22 23 23 22 23 23 23 22 23 23 23 24 24 24 24 25 25 25 25 24 24 24 24 24 24 24 24 24 24 24 23 23 24 24 23 23 24 24
23 23 23 23 22 21 22 23 23 23 23 23 23 23 24 24 24 24 24 24 24 25 25 25 25 25 25 25 25 25 25 25 25 25 24 23 23 24 24 25 24 24 25
23 23 24 23 22 22 22 21 22 22 23 24 24 24 24 24 24 24 23 23 24 24 24 25 26 26 26 26 27 27 26 26 25 26 25 25 25 25 26 26 26 26 26
22 22 23 23 22 22 22 22 22 22 22 22 23 23 23 22 22 23 23 23 23 23 24 26 26 26 27 27 28 28 28 27 27 27 27 27 27 27 27 27 28 28 28
Wind_Direction
335 333 322 306 300 291 278 258 243 244 246 242 238 234 228 229 236 233 229 227 227 232 234 238 242 237 237 236 234 233 233 233 239 240 238 236 235 239 244 247 238 233 237
334 332 323 303 291 285 279 265 244 237 242 241 239 236 230 231 239 236 234 231 232 235 239 241 244 242 244 241 231 233 234 238 241 244 244 243 237 238 239 242 241 240 245
331 331 327 303 284 274 269 263 253 244 246 244 248 240 237 239 237 239 236 234 235 238 239 242 245 248 246 248 246 243 240 236 237 242 243 245 244 240 239 245 248 248 248
328 325 322 300 289 275 259 259 255 249 248 247 245 246 244 245 241 239 232 234 239 242 240 242 242 249 245 248 251 249 244 241 245 246 245 247 251 251 245 243 248 247 251
322 317 313 297 288 278 266 252 245 247 251 248 243 241 242 238 238 235 234 238 243 245 243 245 246 247 243 246 251 249 246 246 249 251 247 247 252 256 253 246 249 250 255
309 309 307 299 291 283 275 265 252 248 250 251 246 242 237 232 232 231 233 237 242 247 247 245 245 245 242 244 249 250 247 249 252 252 250 248 250 253 257 254 252 251 253
298 297 296 293 286 283 278 270 261 255 252 253 246 241 237 233 231 233 236 242 247 251 254 245 246 247 243 243 248 249 250 253 257 256 255 253 253 253 256 259 257 255 256
292 289 287 284 280 275 273 269 264 263 258 254 247 241 240 245 243 244 246 249 252 254 256 248 248 248 247 245 244 247 252 253 256 258 258 257 255 256 258 262 262 260 259
284 283 281 278 275 271 267 270 270 268 266 258 253 246 245 248 251 251 249 252 254 255 253 250 250 249 251 250 249 251 253 256 257 258 259 258 256 256 257 261 261 266 264
283 281 278 276 276 271 266 266 265 265 263 258 255 255 255 250 253 255 256 254 254 256 257 253 252 251 252 253 252 253 256 258 259 259 258 255 254 256 258 262 262 264 266
282 282 279 273 270 269 266 262 260 262 261 256 253 256 259 257 257 258 261 260 258 258 258 255 254 253 253 255 255 255 258 260 260 260 259 257 258 262 265 266 264 263 263
280 279 277 273 267 265 263 260 259 260 260 254 252 257 260 260 261 260 260 262 262 261 259 257 257 255 254 257 258 257 257 261 262 262 264 263 263 265 266 267 263 261 262
276 273 272 272 268 264 262 259 258 259 260 257 255 256 259 260 262 262 261 262 264 263 260 257 256 257 256 257 259 259 258 259 262 263 264 264 263 264 265 265 262 262 265
272 271 272 272 268 263 261 258 256 259 262 259 257 259 261 262 264 265 264 263 264 264 262 257 255 255 258 257 258 259 260 260 261 262 264 266 265 264 262 262 262 262 264
269 268 269 269 267 263 262 259 257 257 258 258 260 259 261 261 262 264 266 264 262 260 260 259 258 256 257 258 257 257 258 259 261 263 264 265 265 264 262 260 261 259 260
267 267 265 266 266 263 261 261 260 258 259 260 262 262 262 262 261 263 265 264 261 260 258 258 258 259 259 259 258 256 256 259 262 263 265 266 266 266 264 263 259 258 260
265 265 262 262 262 260 261 260 261 261 260 261 262 262 263 262 263 263 264 264 262 261 259 257 257 258 258 259 261 260 260 261 262 262 263 265 265 265 264 264 261 259 260
265 264 262 261 261 260 260 261 261 261 263 262 260 261 263 265 264 264 264 264 263 262 262 260 259 257 258 259 261 262 263 265 265 263 263 263 265 264 264 263 262 261 262
265 265 263 260 260 260 260 260 262 262 263 263 261 263 264 266 268 266 264 263 262 262 263 263 261 260 259 260 261 262 263 265 267 266 265 265 266 264 261 261 262 263 264
266 264 264 260 258 257 258 259 261 263 264 263 263 264 264 267 268 268 265 263 262 262 262 263 263 262 261 261 262 263 264 267 269 268 266 266 266 265 262 261 262 261 261
264 263 262 260 259 257 257 258 260 262 263 264 264 265 266 268 267 267 267 265 262 261 261 263 263 263 262 262 263 264 266 269 271 270 267 265 264 265 264 264 263 260 259
263 261 259 259 258 257 256 257 260 262 264 263 263 265 267 267 267 266 266 264 262 262 262 263 264 264 264 264 264 264 266 268 270 269 268 265 264 263 262 263 263 262 261
261 260 258 258 259 258 256 256 259 260 263 264 264 265 266 267 266 266 265 265 264 263 263 264 265 264 263 263 264 264 266 267 269 268 267 266 265 265 263 262 263 264 263
260 259 258 258 259 258 258 258 259 261 263 263 265 264 265 265 266 267 267 267 268 266 265 265 265 264 264 264 264 265 266 266 268 267 266 266 265 266 266 265 264 265 266
260 258 257 257 257 258 259 261 261 262 263 264 264 264 265 266 267 267 267 269 271 269 267 267 266 265 264 264 263 264 266 268 269 269 268 267 267 267 267 266 265 265 266
259 258 256 256 257 257 258 259 261 263 263 264 265 264 265 265 267 267 267 269 270 272 272 270 268 266 265 265 264 264 264 267 269 269 269 268 268 267 267 268 268 266 265
Height
5858 5858 5857 5857 5856 5856 5856 5856 5857 5857 5858 5859 5860 5860 5861 5862 5863 5863 5864 5865 5866 5867 5868 5868 5869 5869 5870 5870 5871 5871 5872 5872 5873 5874 5874 5874 5875 5876 5876 5877 5877 5877 5878
5857 5857 5856 5856 5855 5855 5855 5856 5856 5856 5857 5857 5858 5859 5860 5861 5862 5862 5863 5864 5865 5866 5866 5867 5867 5868 5868 5869 5869 5870 5871 5871 5872 5872 5872 5873 5873 5874 5874 5875 5875 5876 5876
5856 5855 5855 5854 5854 5854 5854 5854 5854 5855 5855 5856 5857 5858 5858 5859 5860 5861 5862 5862 5863 5864 5865 5865 5866 5866 5867 5867 5868 5868 5869 5870 5870 5870 5871 5871 5872 5872 5873 5873 5874 5874 5875
5855 5854 5854 5853 5853 5853 5853 5853 5853 5854 5854 5855 5856 5856 5857 5857 5858 5859 5860 5861 5862 5862 5863 5863 5864 5864 5865 5865 5866 5866 5867 5868 5868 5868 5868 5869 5870 5870 5871 5871 5871 5872 5873
5853 5853 5852 5852 5851 5851 5851 5851 5852 5852 5853 5853 5854 5854 5855 5855 5856 5857 5858 5859 5860 5860 5861 5861 5862 5862 5863 5863 5864 5864 5865 5866 5866 5866 5866 5867 5868 5868 5868 5869 5869 5870 5870
5852 5851 5851 5850 5850 5850 5850 5850 5850 5851 5851 5852 5852 5853 5853 5854 5855 5855 5856 5857 5858 5858 5858 5859 5859 5860 5860 5861 5861 5862 5863 5863 5864 5864 5864 5865 5865 5866 5866 5866 5867 5867 5868
5849 5849 5849 5848 5848 5848 5848 5848 5849 5849 5849 5850 5851 5851 5852 5852 5853 5854 5854 5855 5855 5856 5856 5856 5857 5857 5858 5858 5859 5860 5860 5861 5861 5861 5861 5862 5863 5863 5864 5864 5864 5865 5865
5847 5847 5846 5846 5846 5846 5847 5847 5847 5847 5847 5848 5848 5849 5850 5851 5851 5851 5852 5852 5853 5853 5854 5854 5854 5855 5855 5856 5856 5857 5857 5858 5858 5858 5859 5859 5860 5860 5861 5861 5861 5861 5862
5844 5844 5843 5843 5843 5844 5844 5845 5845 5845 5845 5845 5846 5847 5848 5848 5848 5849 5849 5850 5850 5850 5851 5851 5851 5852 5853 5853 5853 5854 5854 5855 5855 5855 5856 5856 5857 5857 5857 5858 5858 5859 5859
5841 5840 5840 5840 5840 5841 5841 5842 5842 5842 5843 5843 5844 5845 5846 5846 5846 5846 5847 5847 5847 5847 5848 5848 5848 5849 5849 5850 5851 5851 5852 5852 5852 5852 5853 5853 5853 5854 5855 5855 5855 5856 5856
5837 5836 5837 5837 5837 5837 5838 5838 5839 5839 5840 5840 5841 5842 5842 5843 5843 5843 5844 5844 5844 5844 5844 5845 5846 5846 5846 5847 5848 5848 5849 5849 5849 5850 5850 5851 5851 5851 5852 5852 5852 5852 5852
5833 5833 5833 5833 5833 5834 5835 5835 5836 5836 5837 5837 5838 5838 5839 5839 5840 5840 5840 5840 5840 5841 5841 5842 5842 5843 5843 5844 5844 5845 5845 5846 5846 5846 5847 5848 5848 5848 5848 5848 5848 5849 5849
5828 5829 5829 5829 5830 5830 5831 5831 5832 5833 5833 5834 5835 5835 5835 5836 5836 5836 5837 5837 5837 5837 5837 5838 5839 5839 5840 5840 5841 5841 5841 5842 5842 5843 5843 5843 5844 5844 5844 5845 5845 5845 5845
5824 5824 5825 5825 5826 5826 5827 5827 5828 5829 5829 5830 5830 5831 5831 5831 5832 5832 5833 5833 5833 5833 5833 5834 5835 5835 5835 5836 5836 5837 5837 5838 5838 5839 5839 5839 5840 5840 5840 5841 5841 5841 5841
5819 5820 5820 5821 5821 5821 5822 5823 5824 5825 5825 5826 5826 5827 5827 5827 5827 5827 5828 5828 5829 5829 5830 5830 5830 5831 5831 5832 5832 5833 5833 5834 5834 5834 5835 5835 5835 5836 5836 5836 5836 5837 5837
5814 5814 5815 5816 5816 5817 5818 5818 5819 5820 5821 5821 5821 5822 5822 5822 5822 5823 5823 5823 5824 5825 5825 5825 5826 5826 5826 5827 5827 5828 5829 5829 5829 5829 5830 5830 5830 5831 5831 5831 5831 5832 5832
5808 5809 5809 5810 5811 5812 5812 5813 5814 5815 5815 5816 5816 5817 5817 5818 5818 5818 5818 5819 5819 5819 5820 5821 5821 5821 5821 5822 5823 5823 5823 5824 5824 5824 5824 5825 5825 5825 5825 5826 5826 5826 5827
5802 5803 5804 5805 5805 5806 5807 5808 5808 5809 5810 5811 5811 5812 5812 5812 5813 5813 5813 5813 5814 5814 5815 5815 5815 5816 5816 5817 5818 5818 5818 5818 5819 5819 5819 5819 5819 5819 5819 5820 5820 5821 5821
5796 5797 5797 5798 5799 5800 5801 5802 5803 5803 5804 5805 5805 5806 5807 5807 5807 5807 5807 5807 5808 5808 5809 5809 5810 5810 5810 5811 5812 5812 5812 5813 5813 5813 5813 5813 5813 5813 5813 5814 5814 5815 5815
5789 5790 5791 5792 5793 5794 5795 5796 5796 5797 5798 5799 5799 5800 5800 5801 5801 5801 5801 5801 5802 5802 5803 5803 5804 5804 5804 5805 5805 5806 5806 5806 5807 5807 5807 5807 5807 5807 5808 5808 5808 5809 5809
5783 5783 5784 5785 5786 5787 5788 5789 5790 5791 5792 5792 5793 5793 5793 5794 5794 5794 5794 5795 5795 5796 5796 5797 5797 5798 5798 5799 5799 5800 5800 5800 5800 5800 5800 5800 5801 5801 5801 5801 5802 5802 5803
5776 5777 5777 5778 5779 5780 5782 5783 5784 5785 5785 5786 5786 5787 5787 5788 5788 5788 5788 5788 5789 5789 5790 5790 5791 5791 5791 5792 5792 5793 5793 5793 5793 5793 5793 5793 5794 5794 5794 5795 5795 5796 5797
5769 5770 5771 5772 5773 5774 5775 5776 5777 5778 5779 5779 5780 5780 5781 5781 5781 5781 5781 5781 5782 5782 5783 5783 5784 5784 5784 5785 5785 5786 5786 5786 5786 5786 5786 5786 5786 5787 5787 5788 5788 5789 5789
5762 5763 5765 5765 5766 5766 5768 5769 5770 5771 5772 5772 5773 5773 5774 5774 5774 5774 5774 5774 5774 5774 5775 5776 5776 5776 5777 5777 5778 5778 5778 5779 5779 5779 5779 5780 5780 5780 5780 5780 5781 5781 5782
5755 5756 5758 5759 5760 5761 5762 5762 5763 5764 5765 5766 5766 5766 5767 5767 5767 5767 5767 5767 5767 5767 5767 5767 5768 5768 5769 5769 5770 5770 5771 5771 5771 5772 5771 5772 5772 5772 5773 5773 5773 5773 5774
5748 5749 5751 5752 5754 5755 5755 5756 5757 5758 5758 5759 5759 5759 5760 5760 5760 5760 5760 5760 5760 5760 5760 5760 5760 5760 5761 5761 5761 5762 5762 5763 5763 5764 5764 5764 5765 5765 5765 5765 5765 5765 5765